This is the latest recevied weather packets stored in our database for station/object KO4APQ. If no packets are shown the sender has not sent any weather packets the latest 10 day(s).
| Time | Temp. | Humidity | Pressure | Rain* | Wind** | Luminosity | Snow |
|---|---|---|---|---|---|---|---|
| 1777749257 | 18.89° C | 51% | 1012.1 hPa | 0 mm | - | 363 W/m² | - |
| 1777748955 | 18.89° C | 53% | 1012.1 hPa | 0 mm | - | 437 W/m² | - |
| 1777748652 | 18.33° C | 54% | 1012.4 hPa | 0 mm | - | 312 W/m² | - |
| 1777748348 | 18.33° C | 54% | 1012.3 hPa | 0 mm | - | 331 W/m² | - |
| 1777748043 | 18.89° C | 52% | 1012.4 hPa | 0 mm | - | 264 W/m² | - |
| 1777747741 | 18.89° C | 54% | 1012.2 hPa | 0 mm | - | 976 W/m² | - |
| 1777747436 | 19.44° C | 50% | 1012.6 hPa | 0 mm | - | 1123 W/m² | - |
| 1777747133 | 18.89° C | 51% | 1012.3 hPa | 0 mm | - | 1088 W/m² | - |
| 1777746829 | 19.44° C | 51% | 1012.7 hPa | 0 mm | - | 1102 W/m² | - |
| 1777746524 | 18.89° C | 52% | 1012.7 hPa | 0 mm | - | 1057 W/m² | - |
| 1777746220 | 18.89° C | 50% | 1012.6 hPa | 0 mm | - | 1004 W/m² | - |
| 1777745916 | 18.89° C | 49% | 1012.8 hPa | 0 mm | - | 1036 W/m² | - |
| 1777745615 | 20° C | 50% | 1012.9 hPa | 0 mm | - | 1102 W/m² | - |
| 1777745313 | 19.44° C | 49% | 1012.9 hPa | 0 mm | - | 1104 W/m² | - |
| 1777745010 | 18.89° C | 50% | 1013 hPa | 0 mm | - | 1015 W/m² | - |
| 1777744706 | 17.78° C | 53% | 1012.9 hPa | 0 mm | - | 1026 W/m² | - |
| 1777744400 | 17.78° C | 53% | 1013.2 hPa | 0 mm | - | 552 W/m² | - |
| 1777744097 | 17.78° C | 53% | 1013.2 hPa | 0 mm | - | 616 W/m² | - |
| 1777743794 | 17.78° C | 52% | 1013.3 hPa | 0 mm | - | 508 W/m² | - |
| 1777743491 | 17.78° C | 51% | 1013.4 hPa | 0 mm | - | 532 W/m² | - |
| 1777743188 | 17.78° C | 53% | 1013.4 hPa | 0 mm | - | 630 W/m² | - |
| 1777742886 | 17.22° C | 56% | 1013.5 hPa | 0 mm | - | 607 W/m² | - |
| 1777742582 | 16.67° C | 56% | 1013.5 hPa | 0 mm | - | 425 W/m² | - |
| 1777742278 | 16.67° C | 58% | 1013.6 hPa | 0 mm | - | 459 W/m² | - |
| 1777741975 | 16.67° C | 59% | 1013.6 hPa | 0 mm | - | 418 W/m² | - |
* Rain latest hour (hover to see other rain measurements)
** Current wind speed in m/s (hover to see current wind gust speed)